Weather History for Idaho Falls, ID

Change the Weather History Date:

Thursday, March 27, 2014

  Actual Average Record
Temperature  
Mean Temperature 40 °F 40 °F  
Max Temperature 48 °F 51 °F 70 °F (1986)
Min Temperature 32 °F 29 °F 9 °F (1975)
Degree Days  
Heating Degree Days 25 25  
Month to date heating degree days 692 804  
Since 1 July heating degree days 6209 6606  
Cooling Degree Days 0 0  
Month to date cooling degree days 0 0  
Year to date cooling degree days 0 0  
Moisture  
Dew Point 27 °F    
Average Humidity 65    
Maximum Humidity 92    
Minimum Humidity 37    
Precipitation  
Precipitation 0.02 in 0.03 in 0.27 in (1985)
Month to date precipitation 0.55 0.75  
Year to date precipitation 1.44 2.10  
Sea Level Pressure  
Sea Level Pressure 29.71 in    
Wind  
Wind Speed 20 mph (SW)    
Max Wind Speed 39 mph    
Max Gust Speed 52 mph    
Visibility 9 miles    
Events Snow , Thunderstorm    
T = Trace of Precipitation, MM = Missing Value Source: NWS Daily Summary

Daily Weather History Graph

Daily Weather History Graph

Search for Another Location

Airport:

Trip Planner

Search our weather history database for the weather conditions in past years. The results will help you decide how hot, cold, wet, or windy it might be!

Date:

Astronomy

Mar. 27, 2014 Rise Set
Actual Time 7:18 AM MDT 7:49 PM MDT
Civil Twilight 6:50 AM MDT 8:17 PM MDT
Nautical Twilight 6:16 AM MDT 8:51 PM MDT
Astronomical Twilight 5:41 AM MDT 9:26 PM MDT
Moon 5:18 AM MDT (3/27) 4:35 PM MDT (3/27)
Length of Visible Light 13h 27m
Length of Day
12h 30m
Waning Crescent, 12% of the Moon is Illuminated
Mar 27
Waning Crescent
Mar 30
New
Apr 7
First Quarter
Apr 15
Full
Apr 22
Last Quarter

Hourly Weather History & Observations

Time (MDT) Temp. Windchill Dew Point Humidity Pressure Visibility Wind Dir Wind Speed Gust Speed Precip Events Conditions
12:03 AM 36.0 °F 32.1 °F 33.1 °F 89% 29.61 in 10.0 mi SE 4.6 mph - N/A   Overcast
12:53 AM 36.0 °F - 33.1 °F 89% 29.61 in 10.0 mi Calm Calm - N/A   Partly Cloudy
1:53 AM 35.1 °F 29.3 °F 30.9 °F 85% 29.62 in 10.0 mi South 6.9 mph - N/A   Clear
2:53 AM 34.0 °F 25.0 °F 26.1 °F 73% 29.62 in 10.0 mi South 12.7 mph - N/A   Partly Cloudy
3:53 AM 32.0 °F 23.6 °F 25.0 °F 75% 29.63 in 10.0 mi South 10.4 mph - N/A   Clear
4:53 AM 34.0 °F 24.2 °F 27.0 °F 75% 29.63 in 10.0 mi SSW 15.0 mph - N/A   Overcast
5:53 AM 34.0 °F 25.5 °F 28.9 °F 82% 29.65 in 10.0 mi SSW 11.5 mph - N/A   Overcast
6:53 AM 35.1 °F 26.4 °F 30.0 °F 82% 29.65 in 9.0 mi SSW 12.7 mph - 0.00 in Snow Light Snow
7:11 AM 36.0 °F 26.3 °F 30.9 °F 82% 29.66 in 2.0 mi SSW 16.1 mph - 0.00 in   Haze
7:15 AM 35.1 °F 25.2 °F 30.9 °F 85% 29.66 in 1.5 mi SSW 16.1 mph - 0.00 in Snow Light Snow
7:30 AM 34.0 °F 25.0 °F 32.0 °F 92% 29.66 in 5.0 mi SSW 12.7 mph - 0.00 in   Overcast
7:53 AM 35.1 °F 26.9 °F 33.1 °F 92% 29.67 in 9.0 mi SSW 11.5 mph - 0.00 in   Overcast
8:53 AM 36.0 °F 25.0 °F 34.0 °F 93% 29.68 in 10.0 mi SW 20.7 mph 27.6 mph 0.00 in   Overcast
9:53 AM 36.0 °F 25.3 °F 32.0 °F 86% 29.70 in 10.0 mi SSW 19.6 mph 27.6 mph 0.00 in   Overcast
10:53 AM 35.1 °F 22.0 °F 30.0 °F 82% 29.73 in 10.0 mi SSW 28.8 mph 39.1 mph N/A   Overcast
11:53 AM 37.9 °F 25.5 °F 28.9 °F 70% 29.72 in 10.0 mi SSW 31.1 mph 40.3 mph N/A   Overcast
12:53 PM 44.1 °F 33.8 °F 27.0 °F 51% 29.71 in 10.0 mi SSW 31.1 mph 42.6 mph N/A   Widespread Dust
1:53 PM 46.0 °F 36.5 °F 26.1 °F 46% 29.70 in 10.0 mi SSW 31.1 mph 42.6 mph N/A   Widespread Dust
2:53 PM 46.9 °F - 21.0 °F 36% 29.70 in 10.0 mi SW 26.5 mph 43.7 mph N/A   Widespread Dust
3:34 PM 37.0 °F 26.4 °F 27.0 °F 67% 29.72 in 10.0 mi NW 20.7 mph 34.5 mph N/A   Widespread Dust
3:53 PM 37.4 °F 26.9 °F 26.6 °F 65% 29.76 in 9.0 mi NW 20.7 mph 32.2 mph 0.00 in   Widespread Dust
4:53 PM 44.1 °F 34.8 °F 24.1 °F 45% 29.73 in 10.0 mi WSW 25.3 mph 34.5 mph 0.02 in   Overcast
5:35 PM 44.1 °F 36.2 °F 23.0 °F 43% 29.72 in 10.0 mi SW 18.4 mph - N/A Thunderstorm Overcast
5:50 PM 44.6 °F 36.4 °F 19.4 °F 37% 29.74 in 10.0 mi WNW 20.7 mph 27.6 mph N/A   Overcast
5:53 PM 41.0 °F 33.1 °F 21.0 °F 45% 29.76 in 7.0 mi WNW 15.0 mph 27.6 mph 0.00 in   Unknown
6:53 PM 42.1 °F 33.1 °F 23.0 °F 47% 29.76 in 10.0 mi WSW 20.7 mph 28.8 mph 0.00 in   Scattered Clouds
7:53 PM 41.0 °F 31.1 °F 21.0 °F 45% 29.79 in 10.0 mi SW 23.0 mph 31.1 mph N/A   Partly Cloudy
8:53 PM 39.0 °F 29.3 °F 23.0 °F 53% 29.81 in 10.0 mi SW 19.6 mph 26.5 mph N/A   Clear
9:53 PM 37.9 °F 27.6 °F 23.0 °F 55% 29.85 in 10.0 mi SSW 20.7 mph - N/A   Clear
10:53 PM 37.0 °F 25.1 °F 24.1 °F 59% 29.88 in 10.0 mi SSW 26.5 mph 32.2 mph N/A   Clear
11:53 PM 35.1 °F 23.5 °F 27.0 °F 72% 29.92 in 10.0 mi SSW 21.9 mph 28.8 mph N/A   Mostly Cloudy